Year,Month,Day,Hour,Minute,Value (Times are PST for temperature in C)
2010,03,04,00,00,3.10
2010,03,04,00,01,3.10
2010,03,04,00,02,3.00
2010,03,04,00,03,3.00
2010,03,04,00,04,3.00
2010,03,04,00,05,3.00
2010,03,04,00,06,3.00
2010,03,04,00,07,3.00
2010,03,04,00,08,3.10
2010,03,04,00,09,3.10
2010,03,04,00,10,3.10
2010,03,04,00,11,3.00
2010,03,04,00,12,3.00
2010,03,04,00,13,3.00
2010,03,04,00,14,3.00
2010,03,04,00,15,3.00
2010,03,04,00,16,3.00
2010,03,04,00,17,3.00
2010,03,04,00,18,2.90
2010,03,04,00,19,2.90
2010,03,04,00,20,2.90
2010,03,04,00,21,2.90
2010,03,04,00,22,2.90
2010,03,04,00,23,2.80
2010,03,04,00,24,2.80
2010,03,04,00,25,2.80
2010,03,04,00,26,2.80
2010,03,04,00,27,2.80
2010,03,04,00,28,2.80
2010,03,04,00,29,2.80
2010,03,04,00,30,2.80
2010,03,04,00,31,2.80
2010,03,04,00,32,2.90
2010,03,04,00,33,2.80
2010,03,04,00,34,2.80
2010,03,04,00,35,2.80
2010,03,04,00,36,2.80
2010,03,04,00,37,2.70
2010,03,04,00,38,2.70
2010,03,04,00,39,2.70
2010,03,04,00,40,2.70
2010,03,04,00,41,2.70
2010,03,04,00,42,2.70
2010,03,04,00,43,2.70
2010,03,04,00,44,2.70
2010,03,04,00,45,2.70
2010,03,04,00,46,2.70
2010,03,04,00,47,2.70
2010,03,04,00,48,2.70
2010,03,04,00,49,2.70
2010,03,04,00,50,2.70
2010,03,04,00,51,2.60
2010,03,04,00,52,2.60
2010,03,04,00,53,2.60
2010,03,04,00,54,2.60
2010,03,04,00,55,2.60
2010,03,04,00,56,2.60
2010,03,04,00,57,2.50
2010,03,04,00,58,2.50
2010,03,04,00,59,2.50
2010,03,04,01,00,2.50
2010,03,04,01,01,2.50
2010,03,04,01,02,2.50
2010,03,04,01,03,2.50
2010,03,04,01,04,2.50
2010,03,04,01,05,2.50
2010,03,04,01,06,2.50
2010,03,04,01,07,2.50
2010,03,04,01,08,2.40
2010,03,04,01,09,2.40
2010,03,04,01,10,2.40
2010,03,04,01,11,2.40
2010,03,04,01,12,2.40
2010,03,04,01,13,2.40
2010,03,04,01,14,2.30
2010,03,04,01,15,2.30
2010,03,04,01,16,2.30
2010,03,04,01,17,2.30
2010,03,04,01,18,2.30
2010,03,04,01,19,2.30
2010,03,04,01,20,2.30
2010,03,04,01,21,2.30
2010,03,04,01,22,2.30
2010,03,04,01,23,2.20
2010,03,04,01,24,2.20
2010,03,04,01,25,2.20
2010,03,04,01,26,2.20
2010,03,04,01,27,2.20
2010,03,04,01,28,2.20
2010,03,04,01,29,2.20
2010,03,04,01,30,2.20
2010,03,04,01,31,2.20
2010,03,04,01,32,2.20
2010,03,04,01,33,2.20
2010,03,04,01,34,2.20
2010,03,04,01,35,2.20
2010,03,04,01,36,2.20
2010,03,04,01,37,2.20
2010,03,04,01,38,2.20
2010,03,04,01,39,2.20
2010,03,04,01,40,2.20
2010,03,04,01,41,2.30
2010,03,04,01,42,2.30
2010,03,04,01,43,2.30
2010,03,04,01,44,2.40
2010,03,04,01,45,2.40
2010,03,04,01,46,2.40
2010,03,04,01,47,2.50
2010,03,04,01,48,2.50
2010,03,04,01,49,2.50
2010,03,04,01,50,2.60
2010,03,04,01,51,2.60
2010,03,04,01,52,2.70
2010,03,04,01,53,2.70
2010,03,04,01,54,2.70
2010,03,04,01,55,2.70
2010,03,04,01,56,2.70
2010,03,04,01,57,2.70
2010,03,04,01,58,2.70
2010,03,04,01,59,2.80
2010,03,04,02,00,2.80
2010,03,04,02,01,2.80
2010,03,04,02,02,2.80
2010,03,04,02,03,2.80
2010,03,04,02,04,2.80
2010,03,04,02,05,2.90
2010,03,04,02,06,2.90
2010,03,04,02,07,2.90
2010,03,04,02,08,2.90
2010,03,04,02,09,3.00
2010,03,04,02,10,3.00
2010,03,04,02,11,3.10
2010,03,04,02,12,3.10
2010,03,04,02,13,3.10
2010,03,04,02,14,3.20
2010,03,04,02,15,3.20
2010,03,04,02,16,3.20
2010,03,04,02,17,3.20
2010,03,04,02,18,3.20
2010,03,04,02,19,3.30
2010,03,04,02,20,3.30
2010,03,04,02,21,3.30
2010,03,04,02,22,3.30
2010,03,04,02,23,3.30
2010,03,04,02,24,3.30
2010,03,04,02,25,3.30
2010,03,04,02,26,3.40
2010,03,04,02,27,3.40
2010,03,04,02,28,3.40
2010,03,04,02,29,3.40
2010,03,04,02,30,3.40
2010,03,04,02,31,3.40
2010,03,04,02,32,3.40
2010,03,04,02,33,3.40
2010,03,04,02,34,3.50
2010,03,04,02,35,3.50
2010,03,04,02,36,3.50
2010,03,04,02,37,3.50
2010,03,04,02,38,3.50
2010,03,04,02,39,3.50
2010,03,04,02,40,3.50
2010,03,04,02,41,3.50
2010,03,04,02,42,3.50
2010,03,04,02,43,3.50
2010,03,04,02,44,3.50
2010,03,04,02,45,3.50
2010,03,04,02,46,3.50
2010,03,04,02,47,3.50
2010,03,04,02,48,3.50
2010,03,04,02,49,3.40
2010,03,04,02,50,3.40
2010,03,04,02,51,3.50
2010,03,04,02,52,3.50
2010,03,04,02,53,3.50
2010,03,04,02,54,3.50
2010,03,04,02,55,3.50
2010,03,04,02,56,3.60
2010,03,04,02,57,3.60
2010,03,04,02,58,3.60
2010,03,04,02,59,3.50
2010,03,04,03,00,3.50
2010,03,04,03,01,3.60
2010,03,04,03,02,3.60
2010,03,04,03,03,3.60
2010,03,04,03,04,3.60
2010,03,04,03,05,3.60
2010,03,04,03,06,3.60
2010,03,04,03,07,3.60
2010,03,04,03,08,3.60
2010,03,04,03,09,3.60
2010,03,04,03,10,3.60
2010,03,04,03,11,3.60
2010,03,04,03,12,3.60
2010,03,04,03,13,3.60
2010,03,04,03,14,3.60
2010,03,04,03,15,3.60
2010,03,04,03,16,3.60
2010,03,04,03,17,3.60
2010,03,04,03,18,3.60
2010,03,04,03,19,3.50
2010,03,04,03,20,3.50
2010,03,04,03,21,3.60
2010,03,04,03,22,3.60
2010,03,04,03,23,3.60
2010,03,04,03,24,3.60
2010,03,04,03,25,3.60
2010,03,04,03,26,3.60
2010,03,04,03,27,3.60
2010,03,04,03,28,3.70
2010,03,04,03,29,3.70
2010,03,04,03,30,3.70
2010,03,04,03,31,3.70
2010,03,04,03,32,3.70
2010,03,04,03,33,3.70
2010,03,04,03,34,3.80
2010,03,04,03,35,3.80
2010,03,04,03,36,3.80
2010,03,04,03,37,3.80
2010,03,04,03,38,3.80
2010,03,04,03,39,3.80
2010,03,04,03,40,3.80
2010,03,04,03,41,3.80
2010,03,04,03,42,3.80
2010,03,04,03,43,3.80
2010,03,04,03,44,3.80
2010,03,04,03,45,3.80
2010,03,04,03,46,3.80
2010,03,04,03,47,3.80
2010,03,04,03,48,3.80
2010,03,04,03,49,3.80
2010,03,04,03,50,3.80
2010,03,04,03,51,3.80
2010,03,04,03,52,3.80
2010,03,04,03,53,3.80
2010,03,04,03,54,3.80
2010,03,04,03,55,3.80
2010,03,04,03,56,3.80
2010,03,04,03,57,3.80
2010,03,04,03,58,3.90
2010,03,04,03,59,3.90
2010,03,04,04,00,3.90
2010,03,04,04,01,4.00
2010,03,04,04,02,4.00
2010,03,04,04,03,4.00
2010,03,04,04,04,4.10
2010,03,04,04,05,4.10
2010,03,04,04,06,4.10
2010,03,04,04,07,4.10
2010,03,04,04,08,4.10
2010,03,04,04,09,4.10
2010,03,04,04,10,4.10
2010,03,04,04,11,4.10
2010,03,04,04,12,4.10
2010,03,04,04,13,4.20
2010,03,04,04,14,4.20
2010,03,04,04,15,4.20
2010,03,04,04,16,4.20
2010,03,04,04,17,4.20
2010,03,04,04,18,4.20
2010,03,04,04,19,4.20
2010,03,04,04,20,4.20
2010,03,04,04,21,4.20
2010,03,04,04,22,4.20
2010,03,04,04,23,4.20
2010,03,04,04,24,4.20
2010,03,04,04,25,4.20
2010,03,04,04,26,4.20
2010,03,04,04,27,4.20
2010,03,04,04,28,4.20
2010,03,04,04,29,4.20
2010,03,04,04,30,4.30
2010,03,04,04,31,4.20
2010,03,04,04,32,4.20
2010,03,04,04,33,4.20
2010,03,04,04,34,4.20
2010,03,04,04,35,4.20
2010,03,04,04,36,4.20
2010,03,04,04,37,4.20
2010,03,04,04,38,4.20
2010,03,04,04,39,4.20
2010,03,04,04,40,4.10
2010,03,04,04,41,4.10
2010,03,04,04,42,4.10
2010,03,04,04,43,4.10
2010,03,04,04,44,4.10
2010,03,04,04,45,4.10
2010,03,04,04,46,4.10
2010,03,04,04,47,4.10
2010,03,04,04,48,4.10
2010,03,04,04,49,4.00
2010,03,04,04,50,4.00
2010,03,04,04,51,4.00
2010,03,04,04,52,4.00
2010,03,04,04,53,4.00
2010,03,04,04,54,4.00
2010,03,04,04,55,4.00
2010,03,04,04,56,3.90
2010,03,04,04,57,3.90
2010,03,04,04,58,3.90
2010,03,04,04,59,3.90
2010,03,04,05,00,3.90
2010,03,04,05,01,3.90
2010,03,04,05,02,3.90
2010,03,04,05,03,3.80
2010,03,04,05,04,3.80
2010,03,04,05,05,3.80
2010,03,04,05,06,3.80
2010,03,04,05,07,3.80
2010,03,04,05,08,3.80
2010,03,04,05,09,3.80
2010,03,04,05,10,3.80
2010,03,04,05,11,3.80
2010,03,04,05,12,3.80
2010,03,04,05,13,3.80
2010,03,04,05,14,3.80
2010,03,04,05,15,3.80
2010,03,04,05,16,3.80
2010,03,04,05,17,3.80
2010,03,04,05,18,3.80
2010,03,04,05,19,3.80
2010,03,04,05,20,3.90
2010,03,04,05,21,3.90
2010,03,04,05,22,3.90
2010,03,04,05,23,3.90
2010,03,04,05,24,3.90
2010,03,04,05,25,3.90
2010,03,04,05,26,3.90
2010,03,04,05,27,3.90
2010,03,04,05,28,3.90
2010,03,04,05,29,3.90
2010,03,04,05,30,3.90
2010,03,04,05,31,3.90
2010,03,04,05,32,3.90
2010,03,04,05,33,3.90
2010,03,04,05,34,3.90
2010,03,04,05,35,3.90
2010,03,04,05,36,3.90
2010,03,04,05,37,3.90
2010,03,04,05,38,3.90
2010,03,04,05,39,3.90
2010,03,04,05,40,3.90
2010,03,04,05,41,3.90
2010,03,04,05,42,3.90
2010,03,04,05,43,3.90
2010,03,04,05,44,3.90
2010,03,04,05,45,3.90
2010,03,04,05,46,3.90
2010,03,04,05,47,3.90
2010,03,04,05,48,3.90
2010,03,04,05,49,3.80
2010,03,04,05,50,3.80
2010,03,04,05,51,3.80
2010,03,04,05,52,3.80
2010,03,04,05,53,3.80
2010,03,04,05,54,3.80
2010,03,04,05,55,3.80
2010,03,04,05,56,3.80
2010,03,04,05,57,3.80
2010,03,04,05,58,3.80
2010,03,04,05,59,3.80
2010,03,04,06,00,3.70
2010,03,04,06,01,3.70
2010,03,04,06,02,3.70
2010,03,04,06,03,3.70
2010,03,04,06,04,3.70
2010,03,04,06,05,3.70
2010,03,04,06,06,3.70
2010,03,04,06,07,3.70
2010,03,04,06,08,3.70
2010,03,04,06,09,3.70
2010,03,04,06,10,3.70
2010,03,04,06,11,3.70
2010,03,04,06,12,3.70
2010,03,04,06,13,3.70
2010,03,04,06,14,3.60
2010,03,04,06,15,3.60
2010,03,04,06,16,3.60
2010,03,04,06,17,3.60
2010,03,04,06,18,3.60
2010,03,04,06,19,3.60
2010,03,04,06,20,3.60
2010,03,04,06,21,3.60
2010,03,04,06,22,3.60
2010,03,04,06,23,3.60
2010,03,04,06,24,3.60
2010,03,04,06,25,3.60
2010,03,04,06,26,3.60
2010,03,04,06,27,3.60
2010,03,04,06,28,3.60
2010,03,04,06,29,3.60
2010,03,04,06,30,3.60
2010,03,04,06,31,3.60
2010,03,04,06,32,3.60
2010,03,04,06,33,3.60
2010,03,04,06,34,3.60
2010,03,04,06,35,3.60
2010,03,04,06,36,3.50
2010,03,04,06,37,3.50
2010,03,04,06,38,3.50
2010,03,04,06,39,3.50
2010,03,04,06,40,3.50
2010,03,04,06,41,3.50
2010,03,04,06,42,3.50
2010,03,04,06,43,3.50
2010,03,04,06,44,3.50
2010,03,04,06,45,3.50
2010,03,04,06,46,3.50
2010,03,04,06,47,3.50
2010,03,04,06,48,3.50
2010,03,04,06,49,3.50
2010,03,04,06,50,3.60
2010,03,04,06,51,3.60
2010,03,04,06,52,3.60
2010,03,04,06,53,3.70
2010,03,04,06,54,3.70
2010,03,04,06,55,3.70
2010,03,04,06,56,3.70
2010,03,04,06,57,3.70
2010,03,04,06,58,3.70
2010,03,04,06,59,3.70
2010,03,04,07,00,3.70
2010,03,04,07,01,3.70
2010,03,04,07,02,3.70
2010,03,04,07,03,3.70
2010,03,04,07,04,3.70
2010,03,04,07,05,3.70
2010,03,04,07,06,3.70
2010,03,04,07,07,3.70
2010,03,04,07,08,3.70
2010,03,04,07,09,3.70
2010,03,04,07,10,3.80
2010,03,04,07,11,3.80
2010,03,04,07,12,3.80
2010,03,04,07,13,3.80
2010,03,04,07,14,3.80
2010,03,04,07,15,3.80
2010,03,04,07,16,3.80
2010,03,04,07,17,3.90
2010,03,04,07,18,3.90
2010,03,04,07,19,3.90
2010,03,04,07,20,4.00
2010,03,04,07,21,4.00
2010,03,04,07,22,4.10
2010,03,04,07,23,4.10
2010,03,04,07,24,4.10
2010,03,04,07,25,4.10
2010,03,04,07,26,4.20
2010,03,04,07,27,4.20
2010,03,04,07,28,4.30
2010,03,04,07,29,4.30
2010,03,04,07,30,4.30
2010,03,04,07,31,4.30
2010,03,04,07,32,4.30
2010,03,04,07,33,4.40
2010,03,04,07,34,4.50
2010,03,04,07,35,4.50
2010,03,04,07,36,4.60
2010,03,04,07,37,4.70
2010,03,04,07,38,4.70
2010,03,04,07,39,4.80
2010,03,04,07,40,4.80
2010,03,04,07,41,4.80
2010,03,04,07,42,4.80
2010,03,04,07,43,4.90
2010,03,04,07,44,4.90
2010,03,04,07,45,4.90
2010,03,04,07,46,5.00
2010,03,04,07,47,5.00
2010,03,04,07,48,5.10
2010,03,04,07,49,5.10
2010,03,04,07,50,5.10
2010,03,04,07,51,5.20
2010,03,04,07,52,5.20
2010,03,04,07,53,5.20
2010,03,04,07,54,5.20
2010,03,04,07,55,5.30
2010,03,04,07,56,5.30
2010,03,04,07,57,5.30
2010,03,04,07,58,5.30
2010,03,04,07,59,5.30
2010,03,04,08,00,5.30
2010,03,04,08,01,5.30
2010,03,04,08,02,5.30
2010,03,04,08,03,5.40
2010,03,04,08,04,5.40
2010,03,04,08,05,5.40
2010,03,04,08,06,5.50
2010,03,04,08,07,5.50
2010,03,04,08,08,5.60
2010,03,04,08,09,5.60
2010,03,04,08,10,5.60
2010,03,04,08,11,5.60
2010,03,04,08,12,5.70
2010,03,04,08,13,5.70
2010,03,04,08,14,5.70
2010,03,04,08,15,5.70
2010,03,04,08,16,5.70
2010,03,04,08,17,5.80
2010,03,04,08,18,5.80
2010,03,04,08,19,5.80
2010,03,04,08,20,5.80
2010,03,04,08,21,5.90
2010,03,04,08,22,5.90
2010,03,04,08,23,5.90
2010,03,04,08,24,5.90
2010,03,04,08,25,5.90
2010,03,04,08,26,5.90
2010,03,04,08,27,5.90
2010,03,04,08,28,6.00
2010,03,04,08,29,6.00
2010,03,04,08,30,6.10
2010,03,04,08,31,6.10
2010,03,04,08,32,6.20
2010,03,04,08,33,6.20
2010,03,04,08,34,6.20
2010,03,04,08,35,6.30
2010,03,04,08,36,6.30
2010,03,04,08,37,6.30
2010,03,04,08,38,6.30
2010,03,04,08,39,6.30
2010,03,04,08,40,6.30
2010,03,04,08,41,6.30
2010,03,04,08,42,6.30
2010,03,04,08,43,6.30
2010,03,04,08,44,6.30
2010,03,04,08,45,6.30
2010,03,04,08,46,6.30
2010,03,04,08,47,6.40
2010,03,04,08,48,6.40
2010,03,04,08,49,6.40
2010,03,04,08,50,6.50
2010,03,04,08,51,6.50
2010,03,04,08,52,6.50
2010,03,04,08,53,6.60
2010,03,04,08,54,6.60
2010,03,04,08,55,6.60
2010,03,04,08,56,6.60
2010,03,04,08,57,6.60
2010,03,04,08,58,6.60
2010,03,04,08,59,6.60
2010,03,04,09,00,6.60
2010,03,04,09,01,6.70
2010,03,04,09,02,6.70
2010,03,04,09,03,6.80
2010,03,04,09,04,6.80
2010,03,04,09,05,6.80
2010,03,04,09,06,6.90
2010,03,04,09,07,7.00
2010,03,04,09,08,7.10
2010,03,04,09,09,7.20
2010,03,04,09,10,7.20
2010,03,04,09,11,7.40
2010,03,04,09,12,7.50
2010,03,04,09,13,7.70
2010,03,04,09,14,7.70
2010,03,04,09,15,7.80
2010,03,04,09,16,7.80
2010,03,04,09,17,7.80
2010,03,04,09,18,7.80
2010,03,04,09,19,7.80
2010,03,04,09,20,7.90
2010,03,04,09,21,7.90
2010,03,04,09,22,8.00
2010,03,04,09,23,8.00
2010,03,04,09,24,8.10
2010,03,04,09,25,8.10
2010,03,04,09,26,8.10
2010,03,04,09,27,8.10
2010,03,04,09,28,8.00
2010,03,04,09,29,8.00
2010,03,04,09,30,8.00
2010,03,04,09,31,7.90
2010,03,04,09,32,7.90
2010,03,04,09,33,7.90
2010,03,04,09,34,7.90
2010,03,04,09,35,7.90
2010,03,04,09,36,7.90
2010,03,04,09,37,7.90
2010,03,04,09,38,7.90
2010,03,04,09,39,7.90
2010,03,04,09,40,7.90
2010,03,04,09,41,7.90
2010,03,04,09,42,7.90
2010,03,04,09,43,7.90
2010,03,04,09,44,7.90
2010,03,04,09,45,8.00
2010,03,04,09,46,8.00
2010,03,04,09,47,8.10
2010,03,04,09,48,8.10
2010,03,04,09,49,8.10
2010,03,04,09,50,8.10
2010,03,04,09,51,8.10
2010,03,04,09,52,8.20
2010,03,04,09,53,8.20
2010,03,04,09,54,8.30
2010,03,04,09,55,8.30
2010,03,04,09,56,8.30
2010,03,04,09,57,8.30
2010,03,04,09,58,8.30
2010,03,04,09,59,8.30
2010,03,04,10,00,8.30
2010,03,04,10,01,8.40
2010,03,04,10,02,8.40
2010,03,04,10,03,8.40
2010,03,04,10,04,8.40
2010,03,04,10,05,8.50
2010,03,04,10,06,8.50
2010,03,04,10,07,8.40
2010,03,04,10,08,8.40
2010,03,04,10,09,8.40
2010,03,04,10,10,8.50
2010,03,04,10,11,8.50
2010,03,04,10,12,8.60
2010,03,04,10,13,8.70
2010,03,04,10,14,8.70
2010,03,04,10,15,8.80
2010,03,04,10,16,8.80
2010,03,04,10,17,8.80
2010,03,04,10,18,8.80
2010,03,04,10,19,8.80
2010,03,04,10,20,8.80
2010,03,04,10,21,8.80
2010,03,04,10,22,8.70
2010,03,04,10,23,8.70
2010,03,04,10,24,8.70
2010,03,04,10,25,8.80
2010,03,04,10,26,8.70
2010,03,04,10,27,8.70
2010,03,04,10,28,8.70
2010,03,04,10,29,8.80
2010,03,04,10,30,8.80
2010,03,04,10,31,8.70
2010,03,04,10,32,8.70
2010,03,04,10,33,8.80
2010,03,04,10,34,8.80
2010,03,04,10,35,8.80
2010,03,04,10,36,8.80
2010,03,04,10,37,8.70
2010,03,04,10,38,8.80
2010,03,04,10,39,8.80
2010,03,04,10,40,8.80
2010,03,04,10,41,8.80
2010,03,04,10,42,8.80
2010,03,04,10,43,8.90
2010,03,04,10,44,8.90
2010,03,04,10,45,8.90
2010,03,04,10,46,9.00
2010,03,04,10,47,9.00
2010,03,04,10,48,9.10
2010,03,04,10,49,9.10
2010,03,04,10,50,9.20
2010,03,04,10,51,9.20
2010,03,04,10,52,9.20
2010,03,04,10,53,9.20
2010,03,04,10,54,9.20
2010,03,04,10,55,9.10
2010,03,04,10,56,9.10
2010,03,04,10,57,9.10
2010,03,04,10,58,9.10
2010,03,04,10,59,9.10
2010,03,04,11,00,9.10
2010,03,04,11,01,9.10
2010,03,04,11,02,9.10
2010,03,04,11,03,9.10
2010,03,04,11,04,9.10
2010,03,04,11,05,9.10
2010,03,04,11,06,9.20
2010,03,04,11,07,9.20
2010,03,04,11,08,9.20
2010,03,04,11,09,9.20
2010,03,04,11,10,9.20
2010,03,04,11,11,9.20
2010,03,04,11,12,9.20
2010,03,04,11,13,9.30
2010,03,04,11,14,9.30
2010,03,04,11,15,9.30
2010,03,04,11,16,9.30
2010,03,04,11,17,9.30
2010,03,04,11,18,9.30
2010,03,04,11,19,9.30
2010,03,04,11,20,9.20
2010,03,04,11,21,9.20
2010,03,04,11,22,9.20
2010,03,04,11,23,9.20
2010,03,04,11,24,9.20
2010,03,04,11,25,9.20
2010,03,04,11,26,9.20
2010,03,04,11,27,9.20
2010,03,04,11,28,9.20
2010,03,04,11,29,9.20
2010,03,04,11,30,9.20
2010,03,04,11,31,9.20
2010,03,04,11,32,9.10
2010,03,04,11,33,9.10
2010,03,04,11,34,9.10
2010,03,04,11,35,9.10
2010,03,04,11,36,9.10
2010,03,04,11,37,9.20
2010,03,04,11,38,9.10
2010,03,04,11,39,9.10
2010,03,04,11,40,9.10
2010,03,04,11,41,9.10
2010,03,04,11,42,9.10
2010,03,04,11,43,9.10
2010,03,04,11,44,9.10
2010,03,04,11,45,9.10
2010,03,04,11,46,9.20
2010,03,04,11,47,9.20
2010,03,04,11,48,9.20
2010,03,04,11,49,9.20
2010,03,04,11,50,9.30
2010,03,04,11,51,9.30
2010,03,04,11,52,9.30
2010,03,04,11,53,9.30
2010,03,04,11,54,9.30
2010,03,04,11,55,9.40
2010,03,04,11,56,9.40
2010,03,04,11,57,9.50
2010,03,04,11,58,9.50
2010,03,04,11,59,9.40
2010,03,04,12,00,9.40
2010,03,04,12,01,9.40
2010,03,04,12,02,9.40
2010,03,04,12,03,9.40
2010,03,04,12,04,9.50
2010,03,04,12,05,9.50
2010,03,04,12,06,9.50
2010,03,04,12,07,9.50
2010,03,04,12,08,9.60
2010,03,04,12,09,9.60
2010,03,04,12,10,9.60
2010,03,04,12,11,9.50
2010,03,04,12,12,9.50
2010,03,04,12,13,9.50
2010,03,04,12,14,9.50
2010,03,04,12,15,9.60
2010,03,04,12,16,9.60
2010,03,04,12,17,9.60
2010,03,04,12,18,9.60
2010,03,04,12,19,9.60
2010,03,04,12,20,9.70
2010,03,04,12,21,9.80
2010,03,04,12,22,10.00
2010,03,04,12,23,10.00
2010,03,04,12,24,10.10
2010,03,04,12,25,10.10
2010,03,04,12,26,10.20
2010,03,04,12,27,10.30
2010,03,04,12,28,10.30
2010,03,04,12,29,10.30
2010,03,04,12,30,10.30
2010,03,04,12,31,10.30
2010,03,04,12,32,10.40
2010,03,04,12,33,10.40
2010,03,04,12,34,10.40
2010,03,04,12,35,10.40
2010,03,04,12,36,10.40
2010,03,04,12,37,10.40
2010,03,04,12,38,10.30
2010,03,04,12,39,10.20
2010,03,04,12,40,10.10
2010,03,04,12,41,10.00
2010,03,04,12,42,10.00
2010,03,04,12,43,9.90
2010,03,04,12,44,9.90
2010,03,04,12,45,10.00
2010,03,04,12,46,9.90
2010,03,04,12,47,9.90
2010,03,04,12,48,9.90
2010,03,04,12,49,10.00
2010,03,04,12,50,10.00
2010,03,04,12,51,9.90
2010,03,04,12,52,10.00
2010,03,04,12,53,10.00
2010,03,04,12,54,9.90
2010,03,04,12,55,9.80
2010,03,04,12,56,9.70
2010,03,04,12,57,9.70
2010,03,04,12,58,9.70
2010,03,04,12,59,9.70
2010,03,04,13,00,9.70
2010,03,04,13,01,9.70
2010,03,04,13,02,9.60
2010,03,04,13,03,9.60
2010,03,04,13,04,9.60
2010,03,04,13,05,9.60
2010,03,04,13,06,9.60
2010,03,04,13,07,9.60
2010,03,04,13,08,9.70
2010,03,04,13,09,9.70
2010,03,04,13,10,9.70
2010,03,04,13,11,9.80
2010,03,04,13,12,9.80
2010,03,04,13,13,9.90
2010,03,04,13,14,9.90
2010,03,04,13,15,9.90
2010,03,04,13,16,9.90
2010,03,04,13,17,9.90
2010,03,04,13,18,9.90
2010,03,04,13,19,10.00
2010,03,04,13,20,10.10
2010,03,04,13,21,10.10
2010,03,04,13,22,10.10
2010,03,04,13,23,10.20
2010,03,04,13,24,10.20
2010,03,04,13,25,10.20
2010,03,04,13,26,10.30
2010,03,04,13,27,10.30
2010,03,04,13,28,10.20
2010,03,04,13,29,10.20
2010,03,04,13,30,10.10
2010,03,04,13,31,10.20
2010,03,04,13,32,10.20
2010,03,04,13,33,10.30
2010,03,04,13,34,10.30
2010,03,04,13,35,10.30
2010,03,04,13,36,10.30
2010,03,04,13,37,10.30
2010,03,04,13,38,10.20
2010,03,04,13,39,10.20
2010,03,04,13,40,10.20
2010,03,04,13,41,10.20
2010,03,04,13,42,10.20
2010,03,04,13,43,10.20
2010,03,04,13,44,10.20
2010,03,04,13,45,10.10
2010,03,04,13,46,10.20
2010,03,04,13,47,10.20
2010,03,04,13,48,10.20
2010,03,04,13,49,10.20
2010,03,04,13,50,10.20
2010,03,04,13,51,10.10
2010,03,04,13,52,10.10
2010,03,04,13,53,10.10
2010,03,04,13,54,10.10
2010,03,04,13,55,10.10
2010,03,04,13,56,10.20
2010,03,04,13,57,10.20
2010,03,04,13,58,10.20
2010,03,04,13,59,10.20
2010,03,04,14,00,10.20
2010,03,04,14,01,10.20
2010,03,04,14,02,10.20
2010,03,04,14,03,10.10
2010,03,04,14,04,10.20
2010,03,04,14,05,10.20
2010,03,04,14,06,10.20
2010,03,04,14,07,10.20
2010,03,04,14,08,10.20
2010,03,04,14,09,10.20
2010,03,04,14,10,10.30
2010,03,04,14,11,10.30
2010,03,04,14,12,10.30
2010,03,04,14,13,10.20
2010,03,04,14,14,10.30
2010,03,04,14,15,10.30
2010,03,04,14,16,10.40
2010,03,04,14,17,10.40
2010,03,04,14,18,10.30
2010,03,04,14,19,10.40
2010,03,04,14,20,10.30
2010,03,04,14,21,10.30
2010,03,04,14,22,10.30
2010,03,04,14,23,10.40
2010,03,04,14,24,10.40
2010,03,04,14,25,10.50
2010,03,04,14,26,10.50
2010,03,04,14,27,10.50
2010,03,04,14,28,10.40
2010,03,04,14,29,10.40
2010,03,04,14,30,10.40
2010,03,04,14,31,10.30
2010,03,04,14,32,10.30
2010,03,04,14,33,10.40
2010,03,04,14,34,10.40
2010,03,04,14,35,10.30
2010,03,04,14,36,10.30
2010,03,04,14,37,10.30
2010,03,04,14,38,10.30
2010,03,04,14,39,10.30
2010,03,04,14,40,10.30
2010,03,04,14,41,10.30
2010,03,04,14,42,10.30
2010,03,04,14,43,10.30
2010,03,04,14,44,10.30
2010,03,04,14,45,10.40
2010,03,04,14,46,10.40
2010,03,04,14,47,10.50
2010,03,04,14,48,10.40
2010,03,04,14,49,10.40
2010,03,04,14,50,10.40
2010,03,04,14,51,10.40
2010,03,04,14,52,10.40
2010,03,04,14,53,10.40
2010,03,04,14,54,10.40
2010,03,04,14,55,10.40
2010,03,04,14,56,10.50
2010,03,04,14,57,10.50
2010,03,04,14,58,10.50
2010,03,04,14,59,10.60
2010,03,04,15,00,10.60
2010,03,04,15,01,10.60
2010,03,04,15,02,10.60
2010,03,04,15,03,10.50
2010,03,04,15,04,10.40
2010,03,04,15,05,10.40
2010,03,04,15,06,10.40
2010,03,04,15,07,10.50
2010,03,04,15,08,10.50
2010,03,04,15,09,10.50
2010,03,04,15,10,10.50
2010,03,04,15,11,10.50
2010,03,04,15,12,10.50
2010,03,04,15,13,10.40
2010,03,04,15,14,10.30
2010,03,04,15,15,10.30
2010,03,04,15,16,10.30
2010,03,04,15,17,10.40
2010,03,04,15,18,10.40
2010,03,04,15,19,10.30
2010,03,04,15,20,10.20
2010,03,04,15,21,10.20
2010,03,04,15,22,10.20
2010,03,04,15,23,10.20
2010,03,04,15,24,10.30
2010,03,04,15,25,10.30
2010,03,04,15,26,10.30
2010,03,04,15,27,10.30
2010,03,04,15,28,10.30
2010,03,04,15,29,10.30
2010,03,04,15,30,10.20
2010,03,04,15,31,10.10
2010,03,04,15,32,10.10
2010,03,04,15,33,10.10
2010,03,04,15,34,10.10
2010,03,04,15,35,10.10
2010,03,04,15,36,10.10
2010,03,04,15,37,10.00
2010,03,04,15,38,10.00
2010,03,04,15,39,10.00
2010,03,04,15,40,10.00
2010,03,04,15,41,10.00
2010,03,04,15,42,9.90
2010,03,04,15,43,9.90
2010,03,04,15,44,9.80
2010,03,04,15,45,9.80
2010,03,04,15,46,9.80
2010,03,04,15,47,9.90
2010,03,04,15,48,9.90
2010,03,04,15,49,9.90
2010,03,04,15,50,9.90
2010,03,04,15,51,9.80
2010,03,04,15,52,9.80
2010,03,04,15,53,9.80
2010,03,04,15,54,9.80
2010,03,04,15,55,9.80
2010,03,04,15,56,9.70
2010,03,04,15,57,9.70
2010,03,04,15,58,9.80
2010,03,04,15,59,9.80
2010,03,04,16,00,9.80
2010,03,04,16,01,9.80
2010,03,04,16,02,9.80
2010,03,04,16,03,9.80
2010,03,04,16,04,9.80
2010,03,04,16,05,9.80
2010,03,04,16,06,9.70
2010,03,04,16,07,9.70
2010,03,04,16,08,9.60
2010,03,04,16,09,9.60
2010,03,04,16,10,9.60
2010,03,04,16,11,9.50
2010,03,04,16,12,9.50
2010,03,04,16,13,9.50
2010,03,04,16,14,9.50
2010,03,04,16,15,9.50
2010,03,04,16,16,9.50
2010,03,04,16,17,9.40
2010,03,04,16,18,9.40
2010,03,04,16,19,9.40
2010,03,04,16,20,9.40
2010,03,04,16,21,9.30
2010,03,04,16,22,9.30
2010,03,04,16,23,9.30
2010,03,04,16,24,9.30
2010,03,04,16,25,9.30
2010,03,04,16,26,9.30
2010,03,04,16,27,9.30
2010,03,04,16,28,9.30
2010,03,04,16,29,9.30
2010,03,04,16,30,9.30
2010,03,04,16,31,9.20
2010,03,04,16,32,9.20
2010,03,04,16,33,9.20
2010,03,04,16,34,9.20
2010,03,04,16,35,9.20
2010,03,04,16,36,9.20
2010,03,04,16,37,9.20
2010,03,04,16,38,9.30
2010,03,04,16,39,9.30
2010,03,04,16,40,9.30
2010,03,04,16,41,9.30
2010,03,04,16,42,9.30
2010,03,04,16,43,9.20
2010,03,04,16,44,9.20
2010,03,04,16,45,9.20
2010,03,04,16,46,9.20
2010,03,04,16,47,9.20
2010,03,04,16,48,9.20
2010,03,04,16,49,9.20
2010,03,04,16,50,9.20
2010,03,04,16,51,9.20
2010,03,04,16,52,9.20
2010,03,04,16,53,9.20
2010,03,04,16,54,9.10
2010,03,04,16,55,9.10
2010,03,04,16,56,9.10
2010,03,04,16,57,9.10
2010,03,04,16,58,9.10
2010,03,04,16,59,9.10
2010,03,04,17,00,9.10
2010,03,04,17,01,9.10
2010,03,04,17,02,9.10
2010,03,04,17,03,9.10
2010,03,04,17,04,9.10
2010,03,04,17,05,9.10
2010,03,04,17,06,9.10
2010,03,04,17,07,9.10
2010,03,04,17,08,9.10
2010,03,04,17,09,9.10
2010,03,04,17,10,9.00
2010,03,04,17,11,9.00
2010,03,04,17,12,9.00
2010,03,04,17,13,9.00
2010,03,04,17,14,9.00
2010,03,04,17,15,9.00
2010,03,04,17,16,9.00
2010,03,04,17,17,9.00
2010,03,04,17,18,9.00
2010,03,04,17,19,9.00
2010,03,04,17,20,9.00
2010,03,04,17,21,9.00
2010,03,04,17,22,9.00
2010,03,04,17,23,9.00
2010,03,04,17,24,9.00
2010,03,04,17,25,8.90
2010,03,04,17,26,9.00
2010,03,04,17,27,8.90
2010,03,04,17,28,8.90
2010,03,04,17,29,8.90
2010,03,04,17,30,8.90
2010,03,04,17,31,8.90
2010,03,04,17,32,8.90
2010,03,04,17,33,8.90
2010,03,04,17,34,8.90
2010,03,04,17,35,8.80
2010,03,04,17,36,8.80
2010,03,04,17,37,8.80
2010,03,04,17,38,8.80
2010,03,04,17,39,8.80
2010,03,04,17,40,8.80
2010,03,04,17,41,8.80
2010,03,04,17,42,8.80
2010,03,04,17,43,8.80
2010,03,04,17,44,8.80
2010,03,04,17,45,8.80
2010,03,04,17,46,8.70
2010,03,04,17,47,8.70
2010,03,04,17,48,8.70
2010,03,04,17,49,8.70
2010,03,04,17,50,8.70
2010,03,04,17,51,8.70
2010,03,04,17,52,8.70
2010,03,04,17,53,8.70
2010,03,04,17,54,8.70
2010,03,04,17,55,8.70
2010,03,04,17,56,8.70
2010,03,04,17,57,8.70
2010,03,04,17,58,8.70
2010,03,04,17,59,8.70